Year,Month,Day,Hour,Minute,Value (Times are PST for insolation in W/m^2)
2008,05,09,00,00,0.00
2008,05,09,00,01,0.00
2008,05,09,00,02,0.00
2008,05,09,00,03,0.00
2008,05,09,00,04,0.00
2008,05,09,00,05,0.00
2008,05,09,00,06,0.00
2008,05,09,00,07,0.00
2008,05,09,00,08,0.00
2008,05,09,00,09,0.00
2008,05,09,00,10,0.00
2008,05,09,00,11,0.00
2008,05,09,00,12,0.00
2008,05,09,00,13,0.00
2008,05,09,00,14,0.00
2008,05,09,00,15,0.00
2008,05,09,00,16,0.00
2008,05,09,00,17,0.00
2008,05,09,00,18,0.00
2008,05,09,00,19,0.00
2008,05,09,00,20,0.00
2008,05,09,00,21,0.00
2008,05,09,00,22,0.00
2008,05,09,00,23,0.00
2008,05,09,00,24,0.00
2008,05,09,00,25,0.00
2008,05,09,00,26,0.00
2008,05,09,00,27,0.00
2008,05,09,00,28,0.00
2008,05,09,00,29,0.00
2008,05,09,00,30,0.00
2008,05,09,00,31,0.00
2008,05,09,00,32,0.00
2008,05,09,00,33,0.00
2008,05,09,00,34,0.00
2008,05,09,00,35,0.00
2008,05,09,00,36,0.00
2008,05,09,00,37,0.00
2008,05,09,00,38,0.00
2008,05,09,00,39,0.00
2008,05,09,00,40,0.00
2008,05,09,00,41,0.00
2008,05,09,00,42,0.00
2008,05,09,00,43,0.00
2008,05,09,00,44,0.00
2008,05,09,00,45,0.00
2008,05,09,00,46,0.00
2008,05,09,00,47,0.00
2008,05,09,00,48,0.00
2008,05,09,00,49,0.00
2008,05,09,00,50,0.00
2008,05,09,00,51,0.00
2008,05,09,00,52,0.00
2008,05,09,00,53,0.00
2008,05,09,00,54,0.00
2008,05,09,00,55,0.00
2008,05,09,00,56,0.00
2008,05,09,00,57,0.00
2008,05,09,00,58,0.00
2008,05,09,00,59,0.00
2008,05,09,01,00,0.00
2008,05,09,01,01,0.00
2008,05,09,01,02,0.00
2008,05,09,01,03,0.00
2008,05,09,01,04,0.00
2008,05,09,01,05,0.00
2008,05,09,01,06,0.00
2008,05,09,01,07,0.00
2008,05,09,01,08,0.00
2008,05,09,01,09,0.00
2008,05,09,01,10,0.00
2008,05,09,01,11,0.00
2008,05,09,01,12,0.00
2008,05,09,01,13,0.00
2008,05,09,01,14,0.00
2008,05,09,01,15,0.00
2008,05,09,01,16,0.00
2008,05,09,01,17,0.00
2008,05,09,01,18,0.00
2008,05,09,01,19,0.00
2008,05,09,01,20,0.00
2008,05,09,01,21,0.00
2008,05,09,01,22,0.00
2008,05,09,01,23,0.00
2008,05,09,01,24,0.00
2008,05,09,01,25,0.00
2008,05,09,01,26,0.00
2008,05,09,01,27,0.00
2008,05,09,01,28,0.00
2008,05,09,01,29,0.00
2008,05,09,01,30,0.00
2008,05,09,01,31,0.00
2008,05,09,01,32,0.00
2008,05,09,01,33,0.00
2008,05,09,01,34,0.00
2008,05,09,01,35,0.00
2008,05,09,01,36,0.00
2008,05,09,01,37,0.00
2008,05,09,01,38,0.00
2008,05,09,01,39,0.00
2008,05,09,01,40,0.00
2008,05,09,01,41,0.00
2008,05,09,01,42,0.00
2008,05,09,01,43,0.00
2008,05,09,01,44,0.00
2008,05,09,01,45,0.00
2008,05,09,01,46,0.00
2008,05,09,01,47,0.00
2008,05,09,01,48,0.00
2008,05,09,01,49,0.00
2008,05,09,01,50,0.00
2008,05,09,01,51,0.00
2008,05,09,01,52,0.00
2008,05,09,01,53,0.00
2008,05,09,01,54,0.00
2008,05,09,01,55,0.00
2008,05,09,01,56,0.00
2008,05,09,01,57,0.00
2008,05,09,01,58,0.00
2008,05,09,01,59,0.00
2008,05,09,02,00,0.00
2008,05,09,02,01,0.00
2008,05,09,02,02,0.00
2008,05,09,02,03,0.00
2008,05,09,02,04,0.00
2008,05,09,02,05,0.00
2008,05,09,02,06,0.00
2008,05,09,02,07,0.00
2008,05,09,02,08,0.00
2008,05,09,02,09,0.00
2008,05,09,02,10,0.00
2008,05,09,02,11,0.00
2008,05,09,02,12,0.00
2008,05,09,02,13,0.00
2008,05,09,02,14,0.00
2008,05,09,02,15,0.00
2008,05,09,02,16,0.00
2008,05,09,02,17,0.00
2008,05,09,02,18,0.00
2008,05,09,02,19,0.00
2008,05,09,02,20,0.00
2008,05,09,02,21,0.00
2008,05,09,02,22,0.00
2008,05,09,02,23,0.00
2008,05,09,02,24,0.00
2008,05,09,02,25,0.00
2008,05,09,02,26,0.00
2008,05,09,02,27,0.00
2008,05,09,02,28,0.00
2008,05,09,02,29,0.00
2008,05,09,02,30,0.00
2008,05,09,02,31,0.00
2008,05,09,02,32,0.00
2008,05,09,02,33,0.00
2008,05,09,02,34,0.00
2008,05,09,02,35,0.00
2008,05,09,02,36,0.00
2008,05,09,02,37,0.00
2008,05,09,02,38,0.00
2008,05,09,02,39,0.00
2008,05,09,02,40,0.00
2008,05,09,02,41,0.00
2008,05,09,02,42,0.00
2008,05,09,02,43,0.00
2008,05,09,02,44,0.00
2008,05,09,02,45,0.00
2008,05,09,02,46,0.00
2008,05,09,02,47,0.00
2008,05,09,02,48,0.00
2008,05,09,02,49,0.00
2008,05,09,02,50,0.00
2008,05,09,02,51,0.00
2008,05,09,02,52,0.00
2008,05,09,02,53,0.00
2008,05,09,02,54,0.00
2008,05,09,02,55,0.00
2008,05,09,02,56,0.00
2008,05,09,02,57,0.00
2008,05,09,02,58,0.00
2008,05,09,02,59,0.00
2008,05,09,03,00,0.00
2008,05,09,03,01,0.00
2008,05,09,03,02,0.00
2008,05,09,03,03,0.00
2008,05,09,03,04,0.00
2008,05,09,03,05,0.00
2008,05,09,03,06,0.00
2008,05,09,03,07,0.00
2008,05,09,03,08,0.00
2008,05,09,03,09,0.00
2008,05,09,03,10,0.00
2008,05,09,03,11,0.00
2008,05,09,03,12,0.00
2008,05,09,03,13,0.00
2008,05,09,03,14,0.00
2008,05,09,03,15,0.00
2008,05,09,03,16,0.00
2008,05,09,03,17,0.00
2008,05,09,03,18,0.00
2008,05,09,03,19,0.00
2008,05,09,03,20,0.00
2008,05,09,03,21,0.00
2008,05,09,03,22,0.00
2008,05,09,03,23,0.00
2008,05,09,03,24,0.00
2008,05,09,03,25,0.00
2008,05,09,03,26,0.00
2008,05,09,03,27,0.00
2008,05,09,03,28,0.00
2008,05,09,03,29,0.00
2008,05,09,03,30,0.00
2008,05,09,03,31,0.00
2008,05,09,03,32,0.00
2008,05,09,03,33,0.00
2008,05,09,03,34,0.00
2008,05,09,03,35,0.00
2008,05,09,03,36,0.00
2008,05,09,03,37,0.00
2008,05,09,03,38,0.00
2008,05,09,03,39,0.00
2008,05,09,03,40,0.00
2008,05,09,03,41,0.00
2008,05,09,03,42,0.00
2008,05,09,03,43,0.00
2008,05,09,03,44,0.00
2008,05,09,03,45,0.00
2008,05,09,03,46,0.00
2008,05,09,03,47,0.00
2008,05,09,03,48,0.00
2008,05,09,03,49,0.00
2008,05,09,03,50,0.00
2008,05,09,03,51,0.00
2008,05,09,03,52,0.00
2008,05,09,03,53,0.00
2008,05,09,03,54,0.00
2008,05,09,03,55,0.00
2008,05,09,03,56,0.00
2008,05,09,03,57,0.00
2008,05,09,03,58,0.00
2008,05,09,03,59,0.00
2008,05,09,04,00,0.00
2008,05,09,04,01,0.00
2008,05,09,04,02,0.00
2008,05,09,04,03,0.00
2008,05,09,04,04,0.00
2008,05,09,04,05,0.00
2008,05,09,04,06,0.00
2008,05,09,04,07,0.00
2008,05,09,04,08,0.00
2008,05,09,04,09,0.00
2008,05,09,04,10,0.00
2008,05,09,04,11,0.00
2008,05,09,04,12,0.00
2008,05,09,04,13,0.00
2008,05,09,04,14,0.00
2008,05,09,04,15,0.00
2008,05,09,04,16,0.00
2008,05,09,04,17,0.00
2008,05,09,04,18,0.00
2008,05,09,04,19,0.00
2008,05,09,04,20,0.00
2008,05,09,04,21,0.00
2008,05,09,04,22,0.00
2008,05,09,04,23,0.00
2008,05,09,04,24,0.00
2008,05,09,04,25,0.00
2008,05,09,04,26,0.00
2008,05,09,04,27,0.00
2008,05,09,04,28,0.00
2008,05,09,04,29,0.00
2008,05,09,04,30,0.00
2008,05,09,04,31,0.00
2008,05,09,04,32,0.00
2008,05,09,04,33,0.00
2008,05,09,04,34,0.00
2008,05,09,04,35,0.00
2008,05,09,04,36,0.00
2008,05,09,04,37,0.00
2008,05,09,04,38,0.00
2008,05,09,04,39,0.00
2008,05,09,04,40,0.00
2008,05,09,04,41,0.00
2008,05,09,04,42,0.00
2008,05,09,04,43,0.00
2008,05,09,04,44,0.00
2008,05,09,04,45,0.00
2008,05,09,04,46,0.00
2008,05,09,04,47,0.00
2008,05,09,04,48,0.00
2008,05,09,04,49,0.00
2008,05,09,04,50,0.00
2008,05,09,04,51,0.00
2008,05,09,04,52,0.00
2008,05,09,04,53,0.00
2008,05,09,04,54,0.00
2008,05,09,04,55,0.00
2008,05,09,04,56,0.00
2008,05,09,04,57,0.00
2008,05,09,04,58,0.00
2008,05,09,04,59,0.00
2008,05,09,05,00,0.00
2008,05,09,05,01,0.00
2008,05,09,05,02,0.00
2008,05,09,05,03,0.00
2008,05,09,05,04,0.00
2008,05,09,05,05,0.00
2008,05,09,05,06,0.00
2008,05,09,05,07,0.00
2008,05,09,05,08,0.00
2008,05,09,05,09,0.00
2008,05,09,05,10,0.00
2008,05,09,05,11,0.00
2008,05,09,05,12,0.00
2008,05,09,05,13,0.00
2008,05,09,05,14,0.00
2008,05,09,05,15,0.00
2008,05,09,05,16,0.00
2008,05,09,05,17,0.00
2008,05,09,05,18,0.00
2008,05,09,05,19,0.00
2008,05,09,05,20,0.00
2008,05,09,05,21,0.00
2008,05,09,05,22,0.00
2008,05,09,05,23,0.00
2008,05,09,05,24,0.00
2008,05,09,05,25,0.00
2008,05,09,05,26,0.00
2008,05,09,05,27,0.00
2008,05,09,05,28,0.00
2008,05,09,05,29,0.00
2008,05,09,05,30,0.00
2008,05,09,05,31,0.00
2008,05,09,05,32,0.00
2008,05,09,05,33,0.00
2008,05,09,05,34,0.00
2008,05,09,05,35,0.00
2008,05,09,05,36,0.00
2008,05,09,05,37,0.00
2008,05,09,05,38,0.00
2008,05,09,05,39,0.00
2008,05,09,05,40,0.00
2008,05,09,05,41,0.00
2008,05,09,05,42,0.00
2008,05,09,05,43,0.70
2008,05,09,05,44,5.00
2008,05,09,05,45,5.00
2008,05,09,05,46,5.00
2008,05,09,05,47,5.00
2008,05,09,05,48,5.00
2008,05,09,05,49,7.00
2008,05,09,05,50,7.00
2008,05,09,05,51,7.00
2008,05,09,05,52,7.00
2008,05,09,05,53,7.00
2008,05,09,05,54,9.00
2008,05,09,05,55,9.00
2008,05,09,05,56,9.00
2008,05,09,05,57,10.20
2008,05,09,05,58,11.00
2008,05,09,05,59,11.00
2008,05,09,06,00,11.00
2008,05,09,06,01,11.30
2008,05,09,06,02,12.00
2008,05,09,06,03,12.00
2008,05,09,06,04,12.00
2008,05,09,06,05,13.80
2008,05,09,06,06,14.00
2008,05,09,06,07,14.00
2008,05,09,06,08,14.90
2008,05,09,06,09,16.00
2008,05,09,06,10,16.00
2008,05,09,06,11,16.00
2008,05,09,06,12,18.00
2008,05,09,06,13,18.00
2008,05,09,06,14,18.40
2008,05,09,06,15,19.00
2008,05,09,06,16,19.00
2008,05,09,06,17,19.00
2008,05,09,06,18,21.00
2008,05,09,06,19,21.00
2008,05,09,06,20,21.00
2008,05,09,06,21,21.00
2008,05,09,06,22,22.60
2008,05,09,06,23,23.00
2008,05,09,06,24,23.00
2008,05,09,06,25,23.70
2008,05,09,06,26,25.00
2008,05,09,06,27,25.00
2008,05,09,06,28,25.00
2008,05,09,06,29,25.00
2008,05,09,06,30,25.10
2008,05,09,06,31,26.00
2008,05,09,06,32,26.00
2008,05,09,06,33,26.00
2008,05,09,06,34,26.00
2008,05,09,06,35,28.00
2008,05,09,06,36,28.00
2008,05,09,06,37,28.00
2008,05,09,06,38,28.00
2008,05,09,06,39,28.00
2008,05,09,06,40,29.70
2008,05,09,06,41,30.00
2008,05,09,06,42,30.00
2008,05,09,06,43,30.00
2008,05,09,06,44,31.10
2008,05,09,06,45,32.00
2008,05,09,06,46,32.00
2008,05,09,06,47,32.00
2008,05,09,06,48,32.00
2008,05,09,06,49,32.40
2008,05,09,06,50,33.00
2008,05,09,06,51,33.00
2008,05,09,06,52,33.00
2008,05,09,06,53,33.00
2008,05,09,06,54,33.60
2008,05,09,06,55,35.00
2008,05,09,06,56,37.40
2008,05,09,06,57,39.70
2008,05,09,06,58,40.00
2008,05,09,06,59,40.80
2008,05,09,07,00,46.90
2008,05,09,07,01,46.80
2008,05,09,07,02,40.80
2008,05,09,07,03,41.40
2008,05,09,07,04,50.50
2008,05,09,07,05,52.10
2008,05,09,07,06,44.30
2008,05,09,07,07,39.50
2008,05,09,07,08,43.90
2008,05,09,07,09,50.20
2008,05,09,07,10,54.00
2008,05,09,07,11,55.20
2008,05,09,07,12,48.50
2008,05,09,07,13,40.90
2008,05,09,07,14,46.30
2008,05,09,07,15,56.60
2008,05,09,07,16,55.80
2008,05,09,07,17,51.60
2008,05,09,07,18,52.00
2008,05,09,07,19,47.90
2008,05,09,07,20,51.90
2008,05,09,07,21,57.60
2008,05,09,07,22,50.60
2008,05,09,07,23,44.00
2008,05,09,07,24,44.00
2008,05,09,07,25,49.60
2008,05,09,07,26,67.00
2008,05,09,07,27,67.60
2008,05,09,07,28,63.90
2008,05,09,07,29,51.80
2008,05,09,07,30,49.10
2008,05,09,07,31,55.20
2008,05,09,07,32,52.90
2008,05,09,07,33,55.00
2008,05,09,07,34,66.10
2008,05,09,07,35,58.60
2008,05,09,07,36,64.50
2008,05,09,07,37,76.20
2008,05,09,07,38,83.40
2008,05,09,07,39,103.90
2008,05,09,07,40,84.20
2008,05,09,07,41,91.80
2008,05,09,07,42,136.00
2008,05,09,07,43,215.80
2008,05,09,07,44,252.20
2008,05,09,07,45,257.00
2008,05,09,07,46,260.30
2008,05,09,07,47,263.10
2008,05,09,07,48,266.00
2008,05,09,07,49,269.60
2008,05,09,07,50,271.80
2008,05,09,07,51,274.00
2008,05,09,07,52,278.20
2008,05,09,07,53,280.40
2008,05,09,07,54,283.90
2008,05,09,07,55,287.10
2008,05,09,07,56,289.70
2008,05,09,07,57,292.20
2008,05,09,07,58,295.40
2008,05,09,07,59,298.50
2008,05,09,08,00,301.50
2008,05,09,08,01,304.80
2008,05,09,08,02,307.80
2008,05,09,08,03,309.20
2008,05,09,08,04,313.50
2008,05,09,08,05,315.40
2008,05,09,08,06,318.20
2008,05,09,08,07,321.50
2008,05,09,08,08,322.90
2008,05,09,08,09,325.50
2008,05,09,08,10,329.70
2008,05,09,08,11,332.80
2008,05,09,08,12,335.20
2008,05,09,08,13,338.30
2008,05,09,08,14,340.80
2008,05,09,08,15,343.30
2008,05,09,08,16,346.60
2008,05,09,08,17,349.80
2008,05,09,08,18,352.00
2008,05,09,08,19,354.40
2008,05,09,08,20,358.80
2008,05,09,08,21,360.40
2008,05,09,08,22,364.60
2008,05,09,08,23,367.40
2008,05,09,08,24,370.30
2008,05,09,08,25,372.70
2008,05,09,08,26,375.90
2008,05,09,08,27,378.50
2008,05,09,08,28,381.70
2008,05,09,08,29,384.00
2008,05,09,08,30,387.00
2008,05,09,08,31,389.70
2008,05,09,08,32,392.00
2008,05,09,08,33,394.50
2008,05,09,08,34,398.20
2008,05,09,08,35,402.00
2008,05,09,08,36,403.60
2008,05,09,08,37,407.40
2008,05,09,08,38,409.90
2008,05,09,08,39,413.40
2008,05,09,08,40,415.90
2008,05,09,08,41,418.00
2008,05,09,08,42,420.80
2008,05,09,08,43,423.60
2008,05,09,08,44,425.20
2008,05,09,08,45,429.50
2008,05,09,08,46,432.20
2008,05,09,08,47,435.20
2008,05,09,08,48,437.30
2008,05,09,08,49,438.90
2008,05,09,08,50,443.20
2008,05,09,08,51,445.80
2008,05,09,08,52,448.80
2008,05,09,08,53,452.20
2008,05,09,08,54,454.80
2008,05,09,08,55,456.90
2008,05,09,08,56,461.10
2008,05,09,08,57,462.60
2008,05,09,08,58,464.90
2008,05,09,08,59,467.80
2008,05,09,09,00,470.60
2008,05,09,09,01,472.90
2008,05,09,09,02,476.40
2008,05,09,09,03,480.50
2008,05,09,09,04,482.40
2008,05,09,09,05,485.00
2008,05,09,09,06,488.60
2008,05,09,09,07,491.50
2008,05,09,09,08,494.20
2008,05,09,09,09,496.30
2008,05,09,09,10,498.00
2008,05,09,09,11,500.30
2008,05,09,09,12,503.40
2008,05,09,09,13,506.00
2008,05,09,09,14,508.70
2008,05,09,09,15,513.10
2008,05,09,09,16,515.90
2008,05,09,09,17,519.10
2008,05,09,09,18,521.70
2008,05,09,09,19,525.50
2008,05,09,09,20,527.40
2008,05,09,09,21,529.70
2008,05,09,09,22,533.30
2008,05,09,09,23,537.40
2008,05,09,09,24,540.20
2008,05,09,09,25,543.10
2008,05,09,09,26,545.40
2008,05,09,09,27,548.20
2008,05,09,09,28,551.10
2008,05,09,09,29,553.40
2008,05,09,09,30,554.00
2008,05,09,09,31,555.20
2008,05,09,09,32,561.50
2008,05,09,09,33,563.40
2008,05,09,09,34,564.00
2008,05,09,09,35,565.30
2008,05,09,09,36,567.60
2008,05,09,09,37,571.20
2008,05,09,09,38,573.50
2008,05,09,09,39,575.80
2008,05,09,09,40,578.70
2008,05,09,09,41,581.60
2008,05,09,09,42,583.90
2008,05,09,09,43,585.20
2008,05,09,09,44,587.50
2008,05,09,09,45,590.00
2008,05,09,09,46,591.00
2008,05,09,09,47,591.80
2008,05,09,09,48,592.00
2008,05,09,09,49,599.30
2008,05,09,09,50,601.00
2008,05,09,09,51,603.00
2008,05,09,09,52,607.10
2008,05,09,09,53,611.40
2008,05,09,09,54,613.10
2008,05,09,09,55,615.40
2008,05,09,09,56,617.00
2008,05,09,09,57,617.00
2008,05,09,09,58,618.40
2008,05,09,09,59,620.70
2008,05,09,10,00,623.50
2008,05,09,10,01,622.40
2008,05,09,10,02,624.80
2008,05,09,10,03,627.50
2008,05,09,10,04,631.80
2008,05,09,10,05,633.00
2008,05,09,10,06,638.40
2008,05,09,10,07,642.80
2008,05,09,10,08,644.20
2008,05,09,10,09,644.20
2008,05,09,10,10,645.00
2008,05,09,10,11,648.60
2008,05,09,10,12,650.20
2008,05,09,10,13,652.50
2008,05,09,10,14,655.20
2008,05,09,10,15,658.00
2008,05,09,10,16,662.00
2008,05,09,10,17,664.00
2008,05,09,10,18,666.00
2008,05,09,10,19,666.50
2008,05,09,10,20,668.00
2008,05,09,10,21,669.80
2008,05,09,10,22,672.60
2008,05,09,10,23,674.90
2008,05,09,10,24,675.00
2008,05,09,10,25,675.60
2008,05,09,10,26,678.30
2008,05,09,10,27,681.30
2008,05,09,10,28,683.60
2008,05,09,10,29,684.00
2008,05,09,10,30,686.20
2008,05,09,10,31,687.70
2008,05,09,10,32,690.00
2008,05,09,10,33,693.00
2008,05,09,10,34,694.00
2008,05,09,10,35,695.70
2008,05,09,10,36,696.00
2008,05,09,10,37,696.00
2008,05,09,10,38,698.10
2008,05,09,10,39,700.00
2008,05,09,10,40,696.60
2008,05,09,10,41,700.00
2008,05,09,10,42,700.20
2008,05,09,10,43,701.00
2008,05,09,10,44,703.30
2008,05,09,10,45,706.20
2008,05,09,10,46,707.90
2008,05,09,10,47,708.30
2008,05,09,10,48,714.20
2008,05,09,10,49,716.70
2008,05,09,10,50,720.10
2008,05,09,10,51,724.60
2008,05,09,10,52,724.20
2008,05,09,10,53,726.20
2008,05,09,10,54,728.80
2008,05,09,10,55,731.00
2008,05,09,10,56,731.00
2008,05,09,10,57,733.70
2008,05,09,10,58,736.50
2008,05,09,10,59,737.10
2008,05,09,11,00,739.00
2008,05,09,11,01,742.00
2008,05,09,11,02,743.80
2008,05,09,11,03,745.00
2008,05,09,11,04,748.80
2008,05,09,11,05,751.00
2008,05,09,11,06,751.30
2008,05,09,11,07,752.90
2008,05,09,11,08,756.50
2008,05,09,11,09,754.80
2008,05,09,11,10,758.20
2008,05,09,11,11,761.30
2008,05,09,11,12,763.00
2008,05,09,11,13,763.00
2008,05,09,11,14,764.30
2008,05,09,11,15,765.70
2008,05,09,11,16,768.00
2008,05,09,11,17,770.50
2008,05,09,11,18,773.00
2008,05,09,11,19,774.00
2008,05,09,11,20,775.00
2008,05,09,11,21,776.70
2008,05,09,11,22,779.00
2008,05,09,11,23,779.20
2008,05,09,11,24,781.20
2008,05,09,11,25,783.10
2008,05,09,11,26,783.40
2008,05,09,11,27,787.00
2008,05,09,11,28,786.00
2008,05,09,11,29,787.40
2008,05,09,11,30,790.20
2008,05,09,11,31,789.00
2008,05,09,11,32,790.50
2008,05,09,11,33,794.60
2008,05,09,11,34,796.10
2008,05,09,11,35,799.10
2008,05,09,11,36,796.80
2008,05,09,11,37,798.00
2008,05,09,11,38,801.20
2008,05,09,11,39,800.10
2008,05,09,11,40,802.10
2008,05,09,11,41,803.50
2008,05,09,11,42,804.20
2008,05,09,11,43,805.10
2008,05,09,11,44,807.00
2008,05,09,11,45,807.00
2008,05,09,11,46,805.30
2008,05,09,11,47,807.70
2008,05,09,11,48,810.30
2008,05,09,11,49,812.00
2008,05,09,11,50,813.60
2008,05,09,11,51,814.00
2008,05,09,11,52,817.00
2008,05,09,11,53,818.10
2008,05,09,11,54,819.00
2008,05,09,11,55,819.40
2008,05,09,11,56,822.70
2008,05,09,11,57,823.00
2008,05,09,11,58,823.00
2008,05,09,11,59,823.00
2008,05,09,12,00,824.50
2008,05,09,12,01,827.30
2008,05,09,12,02,826.30
2008,05,09,12,03,826.10
2008,05,09,12,04,828.00
2008,05,09,12,05,827.20
2008,05,09,12,06,828.20
2008,05,09,12,07,832.20
2008,05,09,12,08,831.20
2008,05,09,12,09,831.00
2008,05,09,12,10,832.40
2008,05,09,12,11,837.00
2008,05,09,12,12,834.80
2008,05,09,12,13,831.60
2008,05,09,12,14,834.00
2008,05,09,12,15,837.10
2008,05,09,12,16,837.80
2008,05,09,12,17,837.50
2008,05,09,12,18,833.70
2008,05,09,12,19,835.70
2008,05,09,12,20,839.30
2008,05,09,12,21,841.80
2008,05,09,12,22,839.30
2008,05,09,12,23,839.80
2008,05,09,12,24,843.20
2008,05,09,12,25,844.00
2008,05,09,12,26,844.00
2008,05,09,12,27,846.50
2008,05,09,12,28,848.40
2008,05,09,12,29,847.90
2008,05,09,12,30,849.00
2008,05,09,12,31,849.00
2008,05,09,12,32,851.00
2008,05,09,12,33,851.00
2008,05,09,12,34,851.00
2008,05,09,12,35,851.00
2008,05,09,12,36,852.30
2008,05,09,12,37,853.80
2008,05,09,12,38,853.00
2008,05,09,12,39,856.00
2008,05,09,12,40,856.70
2008,05,09,12,41,858.00
2008,05,09,12,42,856.80
2008,05,09,12,43,857.80
2008,05,09,12,44,856.30
2008,05,09,12,45,858.70
2008,05,09,12,46,859.80
2008,05,09,12,47,858.00
2008,05,09,12,48,858.00
2008,05,09,12,49,859.50
2008,05,09,12,50,860.00
2008,05,09,12,51,860.70
2008,05,09,12,52,862.20
2008,05,09,12,53,861.00
2008,05,09,12,54,861.00
2008,05,09,12,55,856.50
2008,05,09,12,56,851.60
2008,05,09,12,57,853.20
2008,05,09,12,58,848.80
2008,05,09,12,59,846.60
2008,05,09,13,00,850.00
2008,05,09,13,01,852.90
2008,05,09,13,02,857.40
2008,05,09,13,03,854.80
2008,05,09,13,04,860.40
2008,05,09,13,05,856.80
2008,05,09,13,06,855.30
2008,05,09,13,07,859.80
2008,05,09,13,08,860.40
2008,05,09,13,09,862.40
2008,05,09,13,10,858.10
2008,05,09,13,11,850.80
2008,05,09,13,12,854.40
2008,05,09,13,13,849.00
2008,05,09,13,14,846.20
2008,05,09,13,15,847.70
2008,05,09,13,16,851.50
2008,05,09,13,17,854.00
2008,05,09,13,18,857.40
2008,05,09,13,19,856.00
2008,05,09,13,20,856.60
2008,05,09,13,21,859.30
2008,05,09,13,22,859.00
2008,05,09,13,23,857.10
2008,05,09,13,24,854.30
2008,05,09,13,25,855.80
2008,05,09,13,26,852.60
2008,05,09,13,27,852.70
2008,05,09,13,28,854.40
2008,05,09,13,29,851.60
2008,05,09,13,30,845.90
2008,05,09,13,31,846.70
2008,05,09,13,32,842.00
2008,05,09,13,33,840.40
2008,05,09,13,34,840.30
2008,05,09,13,35,845.30
2008,05,09,13,36,850.60
2008,05,09,13,37,850.60
2008,05,09,13,38,848.50
2008,05,09,13,39,844.90
2008,05,09,13,40,841.90
2008,05,09,13,41,846.80
2008,05,09,13,42,850.20
2008,05,09,13,43,845.10
2008,05,09,13,44,837.80
2008,05,09,13,45,838.10
2008,05,09,13,46,833.90
2008,05,09,13,47,829.10
2008,05,09,13,48,821.30
2008,05,09,13,49,802.00
2008,05,09,13,50,790.30
2008,05,09,13,51,773.80
2008,05,09,13,52,777.90
2008,05,09,13,53,766.10
2008,05,09,13,54,751.00
2008,05,09,13,55,719.90
2008,05,09,13,56,701.30
2008,05,09,13,57,686.50
2008,05,09,13,58,693.00
2008,05,09,13,59,701.80
2008,05,09,14,00,707.00
2008,05,09,14,01,705.80
2008,05,09,14,02,679.40
2008,05,09,14,03,654.50
2008,05,09,14,04,640.90
2008,05,09,14,05,638.70
2008,05,09,14,06,636.50
2008,05,09,14,07,644.60
2008,05,09,14,08,632.20
2008,05,09,14,09,627.70
2008,05,09,14,10,619.70
2008,05,09,14,11,631.20
2008,05,09,14,12,654.20
2008,05,09,14,13,660.60
2008,05,09,14,14,679.40
2008,05,09,14,15,687.70
2008,05,09,14,16,698.90
2008,05,09,14,17,711.30
2008,05,09,14,18,705.10
2008,05,09,14,19,695.80
2008,05,09,14,20,705.10
2008,05,09,14,21,711.30
2008,05,09,14,22,708.60
2008,05,09,14,23,713.60
2008,05,09,14,24,747.60
2008,05,09,14,25,801.50
2008,05,09,14,26,811.20
2008,05,09,14,27,813.50
2008,05,09,14,28,822.20
2008,05,09,14,29,836.30
2008,05,09,14,30,825.20
2008,05,09,14,31,829.30
2008,05,09,14,32,822.70
2008,05,09,14,33,819.00
2008,05,09,14,34,806.20
2008,05,09,14,35,773.00
2008,05,09,14,36,730.70
2008,05,09,14,37,722.40
2008,05,09,14,38,708.00
2008,05,09,14,39,719.70
2008,05,09,14,40,746.80
2008,05,09,14,41,724.00
2008,05,09,14,42,717.00
2008,05,09,14,43,659.40
2008,05,09,14,44,635.00
2008,05,09,14,45,639.90
2008,05,09,14,46,723.30
2008,05,09,14,47,722.00
2008,05,09,14,48,681.20
2008,05,09,14,49,671.00
2008,05,09,14,50,657.90
2008,05,09,14,51,631.60
2008,05,09,14,52,662.30
2008,05,09,14,53,689.10
2008,05,09,14,54,671.50
2008,05,09,14,55,658.30
2008,05,09,14,56,643.00
2008,05,09,14,57,645.50
2008,05,09,14,58,630.80
2008,05,09,14,59,627.60
2008,05,09,15,00,621.20
2008,05,09,15,01,620.70
2008,05,09,15,02,604.50
2008,05,09,15,03,581.80
2008,05,09,15,04,588.40
2008,05,09,15,05,546.60
2008,05,09,15,06,567.00
2008,05,09,15,07,569.70
2008,05,09,15,08,546.30
2008,05,09,15,09,532.80
2008,05,09,15,10,549.00
2008,05,09,15,11,550.90
2008,05,09,15,12,557.00
2008,05,09,15,13,557.90
2008,05,09,15,14,556.40
2008,05,09,15,15,559.20
2008,05,09,15,16,564.00
2008,05,09,15,17,558.70
2008,05,09,15,18,528.60
2008,05,09,15,19,524.90
2008,05,09,15,20,538.60
2008,05,09,15,21,535.00
2008,05,09,15,22,510.00
2008,05,09,15,23,499.00
2008,05,09,15,24,498.00
2008,05,09,15,25,488.60
2008,05,09,15,26,475.80
2008,05,09,15,27,468.80
2008,05,09,15,28,461.90
2008,05,09,15,29,458.00
2008,05,09,15,30,456.50
2008,05,09,15,31,461.50
2008,05,09,15,32,458.50
2008,05,09,15,33,458.50
2008,05,09,15,34,460.50
2008,05,09,15,35,492.10
2008,05,09,15,36,503.80
2008,05,09,15,37,519.70
2008,05,09,15,38,528.20
2008,05,09,15,39,543.40
2008,05,09,15,40,552.90
2008,05,09,15,41,559.20
2008,05,09,15,42,548.80
2008,05,09,15,43,554.40
2008,05,09,15,44,570.90
2008,05,09,15,45,576.20
2008,05,09,15,46,570.30
2008,05,09,15,47,574.10
2008,05,09,15,48,577.00
2008,05,09,15,49,570.10
2008,05,09,15,50,564.50
2008,05,09,15,51,557.40
2008,05,09,15,52,545.00
2008,05,09,15,53,545.00
2008,05,09,15,54,536.00
2008,05,09,15,55,516.90
2008,05,09,15,56,508.80
2008,05,09,15,57,494.80
2008,05,09,15,58,466.00
2008,05,09,15,59,468.20
2008,05,09,16,00,451.90
2008,05,09,16,01,456.00
2008,05,09,16,02,455.30
2008,05,09,16,03,457.00
2008,05,09,16,04,457.40
2008,05,09,16,05,466.00
2008,05,09,16,06,480.00
2008,05,09,16,07,470.80
2008,05,09,16,08,462.60
2008,05,09,16,09,461.20
2008,05,09,16,10,459.20
2008,05,09,16,11,449.50
2008,05,09,16,12,458.50
2008,05,09,16,13,472.50
2008,05,09,16,14,489.20
2008,05,09,16,15,500.50
2008,05,09,16,16,531.30
2008,05,09,16,17,543.40
2008,05,09,16,18,546.00
2008,05,09,16,19,537.70
2008,05,09,16,20,560.90
2008,05,09,16,21,625.10
2008,05,09,16,22,652.80
2008,05,09,16,23,664.80
2008,05,09,16,24,674.50
2008,05,09,16,25,682.80
2008,05,09,16,26,686.80
2008,05,09,16,27,663.10
2008,05,09,16,28,662.00
2008,05,09,16,29,657.80
2008,05,09,16,30,657.80
2008,05,09,16,31,636.80
2008,05,09,16,32,624.40
2008,05,09,16,33,602.30
2008,05,09,16,34,591.20
2008,05,09,16,35,579.40
2008,05,09,16,36,586.50
2008,05,09,16,37,573.20
2008,05,09,16,38,551.00
2008,05,09,16,39,536.60
2008,05,09,16,40,525.30
2008,05,09,16,41,497.00
2008,05,09,16,42,461.40
2008,05,09,16,43,435.40
2008,05,09,16,44,390.00
2008,05,09,16,45,343.00
2008,05,09,16,46,315.70
2008,05,09,16,47,296.30
2008,05,09,16,48,309.70
2008,05,09,16,49,304.30
2008,05,09,16,50,298.40
2008,05,09,16,51,286.20
2008,05,09,16,52,278.60
2008,05,09,16,53,280.30
2008,05,09,16,54,288.10
2008,05,09,16,55,288.20
2008,05,09,16,56,295.20
2008,05,09,16,57,300.20
2008,05,09,16,58,307.70
2008,05,09,16,59,313.80
2008,05,09,17,00,314.10
2008,05,09,17,01,313.00
2008,05,09,17,02,288.00
2008,05,09,17,03,288.00
2008,05,09,17,04,288.90
2008,05,09,17,05,296.60
2008,05,09,17,06,306.20
2008,05,09,17,07,313.50
2008,05,09,17,08,323.50
2008,05,09,17,09,337.00
2008,05,09,17,10,362.50